Flag for US Virgin Islands Weather past 2 weeks in Charlotte Amalie, US Virgin Islands

Now
83 °F

Clear.


Feels Like: 91 °F
Forecast: 80 / 87 °F
Wind: 7 mph from East

Location: Cyril E. King International Airport

Current Time: Jul 28, 2014 at 1:26:09 AM

Latest Report: Jul 28, 2014 at 12:53 AM


Visibility: 10 mi

Pressure: 30.09 "Hg

Humidity: 79%

Dew point: 76 °F

Location of Charlotte AmalieLocation

Historic Weather in Charlotte Amalie — Graph

°F

Charlotte Amalie temperature yesterday

Maximum temperature yesterday: 88 °F (at 9:53 AM)
Minimum temperature yesterday: 82 °F (at 3:53 AM)
Average temperature yesterday: 85 °F

Past Weeks' High & Low Weather Summary

 TemperatureHumidityPressure
High92 °F (Jul 23, 11:53 AM)100% (Jul 15, 8:53 AM)30.13 "Hg (Jul 15, 8:53 AM)
Low78 °F (Jul 21, 4:53 AM)52% (Jul 23, 10:53 AM)30.00 "Hg (Jul 25, 4:53 PM)
Average84 °F75%30.06 "Hg
* Reported Jul 12 11:53 PM — Jul 27 11:53 PM, Charlotte Amalie, Weather by CustomWeather, © 2014

Note: Actual official high and low records may vary slightly from our data, if they occured in-between our weather recording intervals... More about our weather records

Advertising

Charlotte Amalie weather history for previous 24 hours

 ConditionsComfort  
Time TempWeatherWind HumidityBarometerVisibility
11:53 PM
Jul 27
82 °FClear.7 mph79%30.11 "Hg10 mi
10:53 PM83 °FClear.10 mph79%30.11 "Hg10 mi
9:53 PM83 °FClear.7 mph82%30.11 "Hg10 mi
8:53 PM84 °FPassing clouds.13 mph77%30.10 "Hg10 mi
7:53 PM84 °FPassing clouds.13 mph77%30.09 "Hg10 mi
6:53 PM85 °FMostly cloudy.13 mph75%30.09 "Hg10 mi
5:53 PM86 °FPassing clouds.12 mph70%30.06 "Hg10 mi
4:53 PM88 °FPassing clouds.12 mph63%30.05 "Hg10 mi
3:53 PM87 °FPartly sunny.13 mph63%30.04 "Hg10 mi
2:53 PM87 °FBroken clouds.14 mph67%30.05 "Hg10 mi
1:53 PM88 °FBroken clouds.15 mph65%30.06 "Hg10 mi
12:53 PM86 °FBroken clouds.14 mph72%30.08 "Hg10 mi
11:53 AM87 °FBroken clouds.13 mph72%30.08 "Hg10 mi
10:53 AM86 °FBroken clouds.13 mph72%30.09 "Hg10 mi
9:53 AM88 °FBroken clouds.12 mph65%30.09 "Hg10 mi
8:53 AM86 °FScattered clouds.15 mph70%30.09 "Hg10 mi
7:53 AM85 °FSunny.10 mph70%30.08 "Hg10 mi
6:53 AM83 °FScattered clouds.10 mph79%30.06 "Hg10 mi
5:53 AM82 °FOvercast.7 mph82%30.06 "Hg10 mi
4:53 AM82 °FOvercast.6 mph82%30.05 "Hg10 mi
3:53 AM82 °FOvercast.6 mph82%30.04 "Hg10 mi
1:53 AM83 °FOvercast.12 mph82%30.07 "Hg10 mi
Weather by CustomWeather, © 2014

See weather overviewHow to use our weather pages